DW9837 Weather Reports


Display with metric or nautical units.
time (UTC)temp
F
wind
direction
speed
MPH
gust
MPH
rain 1hr
in
rain 24hr
in
rain mn
in
humidity
%
barometer
mb
20260502151630 49 201 1.0 4.0 0.01 0.01 0.01 88 1012.1
20260502150103 49 184 2.0 6.0 0.01 0.01 0.01 87 1012.1
20260502123051 51 184 0.0 3.0 0.00 0.00 0.00 83 1012.2
20260502121547 51 253 2.0 6.0 0.00 0.00 0.00 82 1012.7
20260502114541 50 289 0.0 2.0 0.00 0.00 0.00 83 1012.2
20260502113037 50 250 0.0 0.0 0.00 0.00 0.00 84 1012.1
20260502111538 49 172 0.0 1.0 0.00 0.00 0.00 85 1012.1
20260502110034 48 178 0.0 0.0 0.00 0.00 0.00 86 1011.9
20260502104536 47 178 0.0 0.0 0.00 0.00 0.00 87 1012.0
20260502103032 47 178 0.0 0.0 0.00 0.00 0.00 87 1011.8
20260502101532 46 178 0.0 0.0 0.00 0.00 0.00 86 1011.7
20260502091530 48 154 0.0 0.0 0.00 0.00 0.00 83 1011.7
20260502071522 47 155 0.0 1.0 0.00 0.00 0.00 82 1011.6
20260502070021 46 120 0.0 1.0 0.00 0.00 0.00 82 1011.9
20260502064518 46 120 0.0 1.0 0.00 0.00 0.00 81 1012.1
20260502063017 46 120 0.0 1.0 0.00 0.00 0.00 80 1011.5
20260502061528 47 120 0.0 1.0 0.00 0.00 0.00 79 1011.8
20260502060016 47 120 0.0 1.0 0.00 0.00 0.00 78 1011.8
20260502054511 48 120 0.0 1.0 0.00 0.00 0.00 77 1011.7
20260502053009 48 130 0.0 1.0 0.00 0.00 0.00 76 1012.0
20260502051517 48 154 0.0 1.0 0.00 0.00 0.00 76 1012.1
20260502050006 48 164 0.0 2.0 0.00 0.00 0.00 76 1012.4
20260502044504 48 109 0.0 1.0 0.00 0.00 0.00 74 1012.3
20260502043002 49 34 0.0 1.0 0.00 0.00 0.00 73 1012.3
20260502041503 49 76 0.0 1.0 0.00 0.00 0.00 74 1012.2
20260502040100 49 250 0.0 1.0 0.00 0.00 0.00 73 1012.3
20260502034558 49 260 0.0 2.0 0.00 0.00 0.00 73 1012.4
20260502033058 49 221 0.0 0.0 0.00 0.00 0.00 72 1012.5
20260502031601 49 220 0.0 1.0 0.00 0.00 0.00 71 1012.4
20260502030109 49 14 0.0 1.0 0.00 0.00 0.00 71 1012.5
20260502024604 50 286 0.0 1.0 0.00 0.00 0.00 70 1012.4
20260502023055 50 205 0.0 1.0 0.00 0.00 0.00 69 1012.4
20260502021602 50 312 0.0 3.0 0.00 0.00 0.00 68 1012.3
20260502020054 50 284 1.0 3.0 0.00 0.00 0.00 68 1012.3
20260502014553 51 316 0.0 4.0 0.00 0.00 0.00 68 1012.3
20260502013053 51 285 0.0 5.0 0.00 0.00 0.00 67 1012.3
20260502011553 51 310 1.0 7.0 0.00 0.00 0.00 66 1012.4
20260502010106 52 322 3.0 7.0 0.00 0.00 0.00 66 1012.2
20260502004556 52 273 3.0 9.0 0.00 0.00 0.00 65 1012.1
20260502003048 52 255 1.0 7.0 0.00 0.00 0.00 63 1011.8
20260502001545 52 353 2.0 6.0 0.00 0.00 0.00 63 1011.4
20260502000045 53 246 2.0 7.0 0.00 0.00 0.00 64 1011.2
20260501234546 54 291 2.0 6.0 0.00 0.00 0.00 62 1010.8
20260501233043 55 305 1.0 4.0 0.00 0.00 0.00 59 1010.7
20260501231543 56 307 1.0 15.0 0.00 0.00 0.00 54 1010.5
20260501230046 57 277 1.0 5.0 0.00 0.00 0.00 42 1010.2
20260501224542 58 294 2.0 9.0 0.00 0.00 0.00 41 1010.2
20260501223043 58 277 3.0 8.0 0.00 0.00 0.00 39 1010.0
20260501221540 59 315 3.0 7.0 0.00 0.00 0.00 39 1010.1
20260501220045 60 284 3.0 9.0 0.00 0.00 0.00 37 1010.1
20260501214550 60 291 2.0 9.0 0.00 0.00 0.00 38 1010.0
20260501213037 60 284 5.0 14.0 0.00 0.00 0.00 38 1009.9
20260501211539 60 268 3.0 11.0 0.00 0.00 0.00 37 1009.8
20260501210042 60 324 5.0 10.0 0.00 0.00 0.00 38 1009.9
20260501204601 59 276 3.0 13.0 0.00 0.00 0.00 41 1009.8
20260501203033 59 289 6.0 14.0 0.00 0.00 0.00 39 1009.7
20260501201533 59 300 4.0 16.0 0.00 0.00 0.00 40 1009.7
20260501200031 60 353 2.0 7.0 0.00 0.00 0.00 41 1009.7
20260501194532 59 129 7.0 12.0 0.00 0.00 0.00 42 1009.9
20260501193032 59 315 4.0 13.0 0.00 0.00 0.00 44 1010.1
20260501191530 59 301 4.0 14.0 0.00 0.00 0.00 44 1010.0
20260501190028 59 222 3.0 10.0 0.00 0.00 0.00 46 1010.2
20260501184528 58 315 5.0 14.0 0.00 0.00 0.00 47 1010.2
20260501183031 58 277 6.0 14.0 0.00 0.00 0.00 45 1010.3
20260501181527 58 351 3.0 12.0 0.00 0.00 0.00 51 1010.2
20260501180033 58 278 3.0 9.0 0.00 0.00 0.00 49 1010.3
20260501174538 57 300 4.0 14.0 0.00 0.00 0.00 49 1010.3
20260501173025 56 260 4.0 16.0 0.00 0.00 0.00 50 1010.5
20260501171526 55 321 5.0 12.0 0.00 0.00 0.00 55 1010.7
20260501170024 56 280 5.0 12.0 0.00 0.00 0.00 54 1010.6
20260501164521 59 269 2.0 8.0 0.00 0.00 0.00 51 1010.7
20260501163020 60 260 1.0 6.0 0.00 0.00 0.00 43 1010.7
20260501161518 59 263 3.0 7.0 0.00 0.00 0.00 46 1010.9
20260501160018 60 319 2.0 6.0 0.00 0.00 0.00 44 1010.9
20260501154518 59 11 1.0 6.0 0.00 0.00 0.00 46 1010.9
20260501153013 58 340 1.0 5.0 0.00 0.00 0.00 47 1011.0